Estación de Imperial Alto

Ultimos registro cada 15 minutos 74
Estación Fecha / Hora Temperatura Humedad Lluvia Velocidad Dirección Radiación Presion
74 Imperial Alto 08-05-2026 18:30 18,1 49 0 0,9 34 0 1010,2
73 Imperial Alto 08-05-2026 18:15 18,4 47 0 2,2 13 0 1009,7
72 Imperial Alto 08-05-2026 18:00 19,1 48 0 0 5 5 1009,4
71 Imperial Alto 08-05-2026 17:45 19,9 46 0 1,3 1 23 1009,2
70 Imperial Alto 08-05-2026 17:30 21,2 44 0 0,4 323 54 1009
69 Imperial Alto 08-05-2026 17:15 21,8 43 0 0 335 90 1008,9
68 Imperial Alto 08-05-2026 17:00 21,9 41 0 0,9 350 144 1008,9
67 Imperial Alto 08-05-2026 16:45 22,4 41 0 0 15 188 1009,1
66 Imperial Alto 08-05-2026 16:30 22,7 41 0 0,9 360 241 1009
65 Imperial Alto 08-05-2026 16:15 23,2 38 0 0,9 339 295 1009
64 Imperial Alto 08-05-2026 16:00 23,3 41 0 1,3 9 320 1009
63 Imperial Alto 08-05-2026 15:45 23,5 40 0 1,8 330 371 1009
62 Imperial Alto 08-05-2026 15:30 23,9 36 0 2,7 6 396 1008,9
61 Imperial Alto 08-05-2026 15:15 24,2 36 0 1,3 348 436 1008,8
60 Imperial Alto 08-05-2026 15:00 24,1 37 0 2,2 341 485 1008,7
59 Imperial Alto 08-05-2026 14:45 24,2 35 0 0,9 323 475 1008,8
58 Imperial Alto 08-05-2026 14:30 24,2 34 0 1,8 318 547 1008,9
57 Imperial Alto 08-05-2026 14:15 24,3 33 0 2,2 342 564 1009
56 Imperial Alto 08-05-2026 14:00 24,9 33 0 2,2 334 577 1009,1
55 Imperial Alto 08-05-2026 13:45 25,4 31 0 1,8 354 584 1009,4
54 Imperial Alto 08-05-2026 13:30 26,2 32 0 2,2 316 621 1009,6
53 Imperial Alto 08-05-2026 13:15 25,7 30 0 1,8 262 631 1009,6
52 Imperial Alto 08-05-2026 13:00 25,9 29 0 0,4 339 635 1009,8
51 Imperial Alto 08-05-2026 12:45 25,1 22 0 0,9 311 649 1009,8
50 Imperial Alto 08-05-2026 12:15 25,1 22 0 0,9 311 649 1009,8
49 Imperial Alto 08-05-2026 12:00 24,8 28 0 1,3 332 622 1010
48 Imperial Alto 08-05-2026 11:45 24,2 28 0 1,3 299 610 1010,3
47 Imperial Alto 08-05-2026 11:30 23,2 29 0 0,4 328 564 1010,8
46 Imperial Alto 08-05-2026 11:15 23,2 29 0 0,4 328 564 1010,8
45 Imperial Alto 08-05-2026 11:00 22,6 28 0 0,9 360 545 1011,2
44 Imperial Alto 08-05-2026 10:45 22,2 30 0 0 243 526 1011,3
43 Imperial Alto 08-05-2026 10:30 20,9 31 0 0 292 459 1011,4
42 Imperial Alto 08-05-2026 10:15 20,9 31 0 0 292 459 1011,4
41 Imperial Alto 08-05-2026 10:00 20,5 33 0 0 226 420 1011,3
40 Imperial Alto 08-05-2026 09:45 20,1 33 0 0 271 394 1011,1
39 Imperial Alto 08-05-2026 09:30 19,8 34 0 0 313 359 1011,1
38 Imperial Alto 08-05-2026 09:15 19,5 29 0 0 276 283 1011,3
37 Imperial Alto 08-05-2026 09:00 19,3 31 0 0 276 223 1011,2
36 Imperial Alto 08-05-2026 08:45 18,4 33 0 0 329 211 1011
35 Imperial Alto 08-05-2026 08:30 17,8 32 0 0 19 230 1011,1
34 Imperial Alto 08-05-2026 08:15 16,7 32 0 0 65 127 1011,1
33 Imperial Alto 08-05-2026 08:00 15,5 33 0 0 117 51 1010,8
32 Imperial Alto 08-05-2026 07:45 15,4 33 0 0 188 23 1010,4
31 Imperial Alto 08-05-2026 07:30 15,9 32 0 0 188 11 1010,3
30 Imperial Alto 08-05-2026 07:15 16,4 31 0 0,4 56 5 1010,1
29 Imperial Alto 08-05-2026 07:00 15,8 33 0 0,9 79 0 1010
28 Imperial Alto 08-05-2026 06:45 15,8 33 0 0 70 0 1009,9
27 Imperial Alto 08-05-2026 06:30 15,6 34 0 0 151 0 1010
26 Imperial Alto 08-05-2026 06:15 15,6 34 0 0 151 0 1010
25 Imperial Alto 08-05-2026 06:00 15,9 32 0 0 31 0 1010
24 Imperial Alto 08-05-2026 05:45 15,6 35 0 0 138 0 1010,3
23 Imperial Alto 08-05-2026 05:30 15,6 36 0 0 321 0 1010,2
22 Imperial Alto 08-05-2026 05:15 15,6 35 0 1,3 65 0 1010,1
21 Imperial Alto 08-05-2026 05:00 15,4 37 0 0,9 53 0 1010,2
20 Imperial Alto 08-05-2026 04:45 15,8 36 0 1,3 51 0 1010,2
19 Imperial Alto 08-05-2026 04:30 15,9 36 0 0 40 0 1010,2
18 Imperial Alto 08-05-2026 04:15 15,5 36 0 1,3 31 0 1010,4
17 Imperial Alto 08-05-2026 04:00 15,7 38 0 1,3 67 0 1010,5
16 Imperial Alto 08-05-2026 03:45 15,9 39 0 0 12 0 1010,4
15 Imperial Alto 08-05-2026 03:30 16,4 39 0 1,3 179 0 1010,4
14 Imperial Alto 08-05-2026 03:15 16,4 39 0 1,3 179 0 1010,4
13 Imperial Alto 08-05-2026 03:00 16,1 39 0 1,3 59 0 1010,5
12 Imperial Alto 08-05-2026 02:45 15,4 43 0 0 51 0 1010,5
11 Imperial Alto 08-05-2026 02:30 16,1 42 0 0 77 0 1011,3
10 Imperial Alto 08-05-2026 02:15 16,1 42 0 0 77 0 1011,3
9 Imperial Alto 08-05-2026 02:00 16,4 41 0 0 37 0 1011,4
8 Imperial Alto 08-05-2026 01:45 16,4 41 0 1,8 35 0 1011,5
7 Imperial Alto 08-05-2026 01:30 19,2 34 0 0 60 0 1011,7
6 Imperial Alto 08-05-2026 01:15 19,2 34 0 0 60 0 1011,7
5 Imperial Alto 08-05-2026 01:00 19,5 34 0 1,8 160 0 1011,9
4 Imperial Alto 08-05-2026 00:45 19,4 35 0 4 158 0 1012,1
3 Imperial Alto 08-05-2026 00:30 17,2 39 0 0,4 94 0 1012,3
2 Imperial Alto 08-05-2026 00:15 17,2 39 0 0,4 94 0 1012,3
1 Imperial Alto 08-05-2026 00:00 17,1 40 0 1,8 155 0 1012,3